Regional Weather Roundup
Issued by NWS

Home | Current Version | Previous Version | Text Only | Print | Product List | Glossary Off
Versions: 1 2 3 4 5 6 7 8 9 10 11 12 13 14 15 16 17 18 19 20 21 22 23 24 25 26 27 28 29 30 31 32 33 34 35 36 37 38 39 40 41 42 43 44 45 46 47 48 49 50

000
ASUS43 KBIS 240210
RWRND

NORTH DAKOTA REGIONAL WEATHER ROUNDUP
NATIONAL WEATHER SERVICE BISMARCK ND
900 PM CDT MON MAY 23 2016

NOTE: "FAIR" INDICATES FEW OR NO CLOUDS BELOW 12,000 FEET WITH NO
SIGNIFICANT WEATHER AND/OR OBSTRUCTIONS TO VISIBILITY.


NDZ001>003-009>011-017-240300-
NORTHWEST NORTH DAKOTA

CITY           SKY/WX    TMP DP  RH WIND       PRES   REMARKS
WILLISTON      PTCLDY    64  38  38 W12       29.70R
MINOT          MOCLDY    70  40  33 SW8       29.67R
MINOT AFB      PTCLDY    69  37  30 W9        29.66R
$$

NDZ018>021-031>035-040>046-240300-
SOUTHWEST NORTH DAKOTA

CITY           SKY/WX    TMP DP  RH WIND       PRES   REMARKS
BISMARCK       CLOUDY    69  40  34 N6        29.68S
DICKINSON      CLEAR     62  37  39 CALM      29.72R
GARRISON         N/A     63  39  41 NW9       29.71F
HETTINGER ARPT PTCLDY    59  43  55 NE12      29.73S
$$

NDZ004>008-012>016-024-026-027-054-240300-
NORTHEAST NORTH DAKOTA

CITY           SKY/WX    TMP DP  RH WIND       PRES   REMARKS
GRAND FORKS    PTCLDY    68  54  60 S6        29.65R
GRND FRKS AFB  CLEAR     68  54  60 S5        29.66R
DEVILS LAKE    CLEAR     68  47  46 W3        29.68R
$$

NDZ022-023-025-028>030-036>039-047>053-240300-
SOUTHEAST NORTH DAKOTA

CITY           SKY/WX    TMP DP  RH WIND       PRES   REMARKS
FARGO          LGT RAIN  76  42  29 E8        29.67R
JAMESTOWN      PTCLDY    68  53  58 S3        29.68R
$$





USA.gov is the U.S. government's official web portal to all federal, state and local government web resources and services.